Home > Weather > Pinneberg > Past weeks

Flag for Germany Past Weather in Pinneberg, Schleswig-Holstein, Germany — Yesterday and Last 2 Weeks

Now
50 °F

Clear.


Feels Like: 50 °F
Forecast: 53 / 71 °F
Wind: 2 mph from North

Location: Hamburg-Fuhlsbuettel

Current Time: May 28, 2016 at 2:10:27 AM

Latest Report: May 28, 2016 at 1:20 AM


Visibility: 10 mi

Pressure: 30.04 "Hg

Humidity: 94%

Dew Point: 48 °F

Location of PinnebergLocation

Past Weather in Pinneberg — Graph

°F

Pinneberg Temperature Yesterday

Maximum temperature yesterday: 64 °F (at 4:50 PM)
Minimum temperature yesterday: 52 °F (at 11:50 PM)
Average temperature yesterday: 58 °F

High & Low Weather Summary for the Past Weeks

 TemperatureHumidityPressure
High82 °F (May 22, 2:50 PM)100% (May 15, 12:50 AM)30.07 "Hg (May 15, 12:50 AM)
Low41 °F (May 15, 3:50 AM)27% (May 19, 3:20 PM)29.59 "Hg (May 13, 3:50 PM)
Average56 °F78%29.88 "Hg
* Reported May 13 12:20 AM — May 28 12:50 AM, Pinneberg, Weather by CustomWeather, © 2016

Note: Actual official high and low records may vary slightly from our data, if they occured in-between our weather recording intervals... More about our weather records

Advertising

Pinneberg Weather History for the Previous 24 Hours

Scroll right to see more
 ConditionsComfort  
Time TempWeatherWind HumidityBarometerVisibility
12:50 AM
Sat, May 28
52 °FClear.2 mph94%30.04 "Hg10 mi
12:20 AM52 °FClear.2 mph94%30.04 "Hg10 mi
11:50 PM
Fri, May 27
52 °FPassing clouds.5 mph88%30.04 "HgN/A
11:20 PM54 °FClear.2 mph88%30.07 "Hg10 mi
10:50 PM54 °FPassing clouds.3 mph88%30.04 "HgN/A
10:20 PM55 °FSunny.6 mph82%30.04 "Hg10 mi
9:50 PM57 °FSunny.5 mph82%30.04 "Hg10 mi
9:20 PM59 °FPassing clouds.5 mph77%30.04 "HgN/A
8:50 PM59 °FPassing clouds.3 mph77%30.04 "HgN/A
8:20 PM63 °FScattered clouds.7 mph68%30.04 "HgN/A
7:50 PM63 °FScattered clouds.8 mph73%30.04 "HgN/A
7:20 PM64 °FScattered clouds.7 mph73%30.04 "HgN/A
6:50 PM64 °FScattered clouds.7 mph73%30.04 "HgN/A
6:20 PM64 °FScattered clouds.8 mph73%30.04 "HgN/A
5:50 PM64 °FScattered clouds.9 mph73%30.04 "HgN/A
5:20 PM64 °FBroken clouds.7 mph78%30.04 "HgN/A
4:50 PM64 °FBroken clouds.6 mph73%30.04 "HgN/A
4:20 PM63 °FPartly sunny.6 mph77%30.04 "HgN/A
3:50 PM61 °FBroken clouds.6 mph88%30.07 "HgN/A
3:20 PM63 °FBroken clouds.5 mph83%30.07 "HgN/A
2:50 PM61 °FBroken clouds.3 mph88%30.07 "HgN/A
2:20 PM59 °FPartly sunny.5 mph88%30.07 "HgN/A
1:50 PM59 °FPartly sunny.8 mph94%30.07 "HgN/A
1:20 PM61 °FBroken clouds.3 mph88%30.07 "HgN/A
12:50 PM59 °FPartly sunny.6 mph94%30.07 "HgN/A
12:20 PM59 °FPartly sunny.5 mph88%30.07 "HgN/A
11:50 AM59 °FPartly sunny.5 mph88%30.07 "HgN/A
11:20 AM57 °FBroken clouds.5 mph94%30.07 "Hg6 mi
10:50 AM57 °FBroken clouds.5 mph94%30.07 "Hg6 mi
10:20 AM57 °FPartly sunny.6 mph94%30.07 "Hg4 mi
9:50 AM57 °FPartly sunny.3 mph94%30.07 "Hg4 mi
9:20 AM57 °FPartly sunny.6 mph94%30.07 "Hg4 mi
8:50 AM57 °FPartly sunny.5 mph94%30.07 "Hg4 mi
8:20 AM57 °FPartly sunny.3 mph94%30.07 "Hg4 mi
7:50 AM55 °FBroken clouds.3 mph100%30.04 "Hg4 mi
7:20 AM55 °FBroken clouds.2 mph100%30.04 "Hg4 mi
6:50 AM55 °FPartly sunny.2 mph100%30.04 "Hg4 mi
6:20 AM55 °FPartly sunny.3 mph100%30.04 "Hg4 mi
5:50 AM55 °FFog.3 mph94%30.04 "Hg3 mi
5:20 AM55 °FFog.3 mph100%30.04 "Hg3 mi
4:50 AM55 °FDrizzle. Fog.2 mph94%30.04 "Hg1 mi
4:20 AM55 °FDrizzle. Fog.2 mph94%30.04 "Hg1 mi
3:50 AM55 °FDrizzle. Fog.6 mph94%30.04 "Hg1 mi
3:20 AM55 °FDrizzle. Fog.5 mph94%30.04 "Hg1 mi
2:50 AM55 °FDrizzle. Fog.3 mph94%30.04 "Hg1 mi
2:20 AM55 °FDrizzle. Fog.5 mph100%30.04 "Hg1 mi
Weather by CustomWeather, © 2016

See weather overviewHow to use our weather pages